Regional Weather Roundup
Issued by NWS

Home | Current Version | Previous Version | Graphics & Text | Print | Product List | Glossary On
Versions: 1 2 3 4 5 6 7 8 9 10 11 12 13 14 15 16 17 18 19 20 21 22 23 24 25 26 27 28 29 30 31 32 33 34 35 36 37 38 39 40 41 42 43 44 45 46 47 48 49 50
000
ASUS44 KMEG 041700
RWRTN
TENNESSEE HOURLY STATE WEATHER ROUNDUP
NATIONAL WEATHER SERVICE MEMPHIS TN
1200 PM CDT SAT JUL 04 2015

TNZ002-004-019-021-049-052-054-088>092-041800-
WEST TENNESSEE

CITY           SKY/WX    TMP DP  RH WIND       PRES   REMARKS
MEMPHIS INTL   CLOUDY    75  71  87 SW9       30.01R
NWS MEMPHIS      N/A     73 N/A N/A MISG        N/A
JACKSON        CLOUDY    76  70  82 W3        30.01R
DYERSBURG        N/A    N/A N/A N/A MISG        N/A
PARIS          PTSUNNY   75  68  78 W5        30.01R
LEXINGTON      CLOUDY    75  70  83 CALM      30.00F
$$

TNZ008-025-027-028-033-062-065-066-041800-
NORTH MIDDLE TENNESSEE

CITY           SKY/WX    TMP DP  RH WIND       PRES   REMARKS
NASHVILLE      CLOUDY    79  72  79 S8        30.01F
CLARKSVILLE    CLOUDY    80  71  74 NE3       30.00S
COOKEVILLE     PTSUNNY   77  72  83 SW6       30.04S
CROSSVILLE     CLOUDY    73  67  81 W8        30.08F
$$

TNZ061-075-076-078-094-096-097-041800-
SOUTH MIDDLE TENNESSEE

CITY           SKY/WX    TMP DP  RH WIND       PRES   REMARKS
FAYETTEVILLE   PTSUNNY   72  70  94 SW8       30.04F
TULLAHOMA      CLOUDY    72  68  88 SW7       30.06S
WINCHESTER     PTSUNNY   72  70  94 VRB5      30.06S
SHELBYVILLE    CLOUDY    75  72  88 SW8         N/A
$$

TNZ017-018-042-046-047-041800-
NORTHEAST TENNESSEE

CITY           SKY/WX    TMP DP  RH WIND       PRES   REMARKS
TRI CITIES     CLOUDY    74  68  81 SW10      30.05F
ELIZABETHTON   DRIZZLE   66  66 100 CALM      30.07S
$$

TNZ012-013-036-069-073-074-041800-
CENTRAL EAST TENNESSEE

CITY           SKY/WX    TMP DP  RH WIND       PRES   REMARKS
KNOXVILLE      HVY RAIN  71  69  93 SW9       30.05S VSB 1
OAK RIDGE      CLOUDY    75  68  78 SW8       30.06S
GATLINBURG     CLOUDY    73  66  78 W6        30.05S
$$

TNZ083-085-099-041800-
SOUTHEAST TENNESSEE

CITY           SKY/WX    TMP DP  RH WIND       PRES   REMARKS
CHATTANOOGA    CLOUDY    76  68  76 SW8       30.06S
$$

SKY/WX REPORTED AS FAIR MEANS FEW OR NO CLOUDS BELOW
12 THOUSAND FEET.



USA.gov is the U.S. government's official web portal to all federal, state and local government web resources and services.